Home   Weather   Messina   Past weeks

Flag for Italy Past Weather in Messina, Italy — Yesterday and Last 2 Weeks

Now
63 °F

Clear.


Feels Like: 63 °F
Forecast: 56 / 69 °F
Wind: 13 mph from North

Location: Reggio Calabria

Current Time: Apr 30, 2017 at 8:50:40 pm

Latest Report: Apr 30, 2017 at 7:50 pm


Visibility: 10 mi

Pressure: 29.89 "Hg

Humidity: 59%

Dew Point: 48 °F

Location of MessinaLocation

Past Weather in Messina — Graph

°F

Messina Temperature Yesterday

Maximum temperature yesterday: 68 °F (at 12:50 pm)
Minimum temperature yesterday: 61 °F (at 6:50 am)
Average temperature yesterday: 63 °F

High & Low Weather Summary for the Past Weeks

 TemperatureHumidityPressure
High73 °F (Apr 15, 6:50 pm)94% (Apr 26, 8:50 pm)30.27 "Hg (Apr 26, 8:50 pm)
Low48 °F (Apr 24, 6:50 am)23% (Apr 20, 11:50 pm)29.77 "Hg (Apr 29, 6:00 am)
Average62 °F58%30.01 "Hg
* Reported Apr 15 6:50 pm — Apr 30 6:50 pm, Messina, Weather by CustomWeather, © 2017

Note: Actual official high and low records may vary slightly from our data, if they occured in-between our weather recording intervals... More about our weather records

Advertising

Messina Weather History for the Previous 24 Hours

Scroll right to see more
 ConditionsComfort  
Time TempWeatherWind HumidityBarometerVisibility
6:50 pm
Sun, Apr 30
64 °FSunny.16 mph52%29.89 "Hg10 mi
5:50 pm66 °FSunny.15 mph56%29.89 "Hg10 mi
4:50 pm66 °FPassing clouds.15 mph56%29.89 "HgN/A
3:50 pm66 °FPassing clouds.17 mph56%29.89 "HgN/A
2:50 pm70 °FSunny.18 mph33%29.92 "Hg10 mi
1:50 pm70 °FSunny.17 mph38%29.92 "Hg10 mi
12:50 pm68 °FSunny.17 mph43%29.92 "Hg10 mi
11:50 am66 °FSunny.13 mph52%29.92 "Hg10 mi
10:50 am68 °FSunny.14 mph46%29.92 "Hg10 mi
9:50 am64 °FSunny.17 mph52%29.89 "Hg10 mi
8:50 am63 °FPassing clouds.14 mph56%29.89 "HgN/A
7:50 am59 °FPassing clouds.10 mph63%29.92 "HgN/A
6:50 am59 °FSunny.12 mph63%29.89 "Hg10 mi
6:00 am57 °FPassing clouds.7 mph72%29.89 "HgN/A
11:50 pm
Sat, Apr 29
61 °FClear.12 mph63%29.86 "Hg10 mi
10:50 pm61 °FClear.16 mph59%29.86 "Hg10 mi
9:50 pm61 °FPassing clouds.16 mph59%29.86 "HgN/A
8:50 pm61 °FClear.16 mph63%29.86 "Hg10 mi
Weather by CustomWeather, © 2017

See weather overviewHow to use our weather pages